Skip Page Navigation
NASA JPL Caltech
NASA Logo - Jet Propulsion Laboratory + View the NASA Portal
+ Center for Near-Earth Object Studies
JPL Home Earth Solar System Stars & Galaxies Technology
JPL Solar System Dynamics
BODIES ORBITS EPHEMERIDES TOOLS PHYSICAL DATA DISCOVERY FAQ SITE MAP
JPL Small-Body Database Browser
Search: [ help ]  
58297 (1994 PA3)
Classification: Main-belt Asteroid          SPK-ID: 2058297
Ephemeris | Orbit Diagram | Orbital Elements | Mission Design | Physical Parameters | Discovery Circumstances | Close-Approach Data ]

[ show orbit diagram ]
Orbital Elements at Epoch 2459000.5 (2020-May-31.0) TDB
Reference: JPL 19 (heliocentric ecliptic J2000)
 Element Value Uncertainty (1-sigma)   Units 
e .1468416304248057 5.3019e-08  
a 3.101491791926005 2.5065e-08 au
q 2.646063680450438 1.7222e-07 au
i 1.447943892648416 5.6701e-06 deg
node 199.9077018925234 0.00017746 deg
peri 179.8379083001626 0.0001783 deg
M 220.5409521595049 2.1271e-05 deg
tp 2459773.355987834120
(2022-Jul-12.85598783)
0.00012437 TDB
period 1995.052740776661
5.46
2.4185e-05
6.621e-08
d
yr
n .1804463574531139 2.1875e-09 deg/d
Q 3.556919903401572 2.8746e-08 au
  Orbit Determination Parameters
   # obs. used (total)      822  
   data-arc span      10391 days (28.45 yr)  
   first obs. used      1992-03-25  
   last obs. used      2020-09-05  
   planetary ephem.      DE431  
   SB-pert. ephem.      SB431-N16  
   condition code      0  
   norm. resid. RMS      .55707  
   source      ORB  
   producer      Otto Matic  
   solution date      2020-Nov-12 22:51:35  

Additional Information
 Earth MOID = 1.64847 au 
 Jupiter MOID = 1.90401 au 
 T_jup = 3.205 
[ show covariance matrix ]

Ephemeris | Orbit Diagram | Orbital Elements | Mission Design | Physical Parameters | Discovery Circumstances | Close-Approach Data ]

Physical Parameter Table
Parameter Symbol Value Units Sigma Reference Notes
absolute magnitude H 14.55   n/a E2021B10  

58297 (1994 PA3)          Discovered 1994-Aug-10 by Elst, E. W. at La Silla
Reference: 20030614/Numbers.arcLast Updated: 2004-04-19

[ show close-approach data ]
Alternate Designations
 1994 PA3 = 2000 SP152 
Ephemeris | Orbit Diagram | Orbital Elements | Mission Design | Physical Parameters | Discovery Circumstances | Close-Approach Data ]
ABOUT SSD CREDITS/AWARDS PRIVACY/COPYRIGHT GLOSSARY LINKS
FirstGov 2021-Mar-01 11:29 UT
(server date/time)  
NASA Home Page
Site Manager:   Ryan S. Park
Webmaster  Alan B. Chamberlin